Sheldon, IA

5:13 AM CST on February 10, 2016 (GMT -0600)
Sheldon Municipal

Weather History for KSHL - January, 2013

Change the Weather History Date:

Saturday, January 26, 2013

  Actual Average Record
Temperature  
Mean Temperature 19 °F -  
Max Temperature 35 °F 24 °F 66 °F (2002)
Min Temperature 3 °F 4 °F -25 °F (1950)
Degree Days  
Heating Degree Days 46    
Moisture  
Dew Point 10 °F    
Average Humidity 67    
Maximum Humidity 78    
Minimum Humidity 54    
Precipitation  
Precipitation 0.00 in - - ()
Sea Level Pressure  
Sea Level Pressure 30.12 in    
Wind  
Wind Speed 10 mph (SE)    
Max Wind Speed 20 mph    
Max Gust Speed 26 mph    
Visibility 10 miles    
Events      
Averages and records for this station are not official NWS values.
T = Trace of Precipitation, MM = Missing Value Source: NWS Daily Summary

Daily Weather History Graph

Daily Weather History Graph

Search for Another Location

Airport or City:

Trip Planner

Search our weather history database for the weather conditions in past years. The results will help you decide how hot, cold, wet, or windy it might be!

Date:

Astronomy

Jan. 26, 2013 Rise Set
Actual Time 7:44 AM CST 5:27 PM CST
Civil Twilight 7:13 AM CST 5:58 PM CST
Nautical Twilight 6:39 AM CST 6:33 PM CST
Astronomical Twilight 6:05 AM CST 7:06 PM CST
Moon 5:25 PM CST (1/26) 7:02 AM CST (1/26)
Length of Visible Light 10h 44m
Length of Day
9h 43m
Full, 100% of the Moon is Illuminated
Jan 26
Full
Jan 26
Full
Feb 3
Last Quarter
Feb 10
New
Feb 17
First Quarter

Hourly Weather History & Observations

Time (CST) Temp. Windchill Dew Point Humidity Pressure Visibility Wind Dir Wind Speed Gust Speed Precip Events Conditions
12:15 AM 5.0 °F - -0.4 °F 78% 30.26 in 10.0 mi Calm Calm - N/A   Clear
12:35 AM 5.0 °F -2.1 °F -0.4 °F 78% 30.25 in 10.0 mi SE 3.5 mph - N/A   Clear
12:55 AM 5.0 °F - -0.4 °F 78% 30.25 in 10.0 mi Calm Calm - N/A   Clear
1:15 AM 5.0 °F -4.1 °F -2.2 °F 72% 30.25 in 10.0 mi ENE 4.6 mph - N/A   Clear
1:35 AM 5.0 °F -5.6 °F -2.2 °F 72% 30.26 in 10.0 mi East 5.8 mph - N/A   Clear
1:55 AM 5.0 °F -4.1 °F -2.2 °F 72% 30.25 in 10.0 mi East 4.6 mph - N/A   Clear
2:15 AM 5.0 °F -5.6 °F -2.2 °F 72% 30.25 in 10.0 mi ENE 5.8 mph - N/A   Clear
2:35 AM 5.0 °F -8.1 °F -2.2 °F 72% 30.24 in 10.0 mi ENE 8.1 mph - N/A   Clear
2:55 AM 5.0 °F -6.9 °F -2.2 °F 72% 30.24 in 10.0 mi ENE 6.9 mph - N/A   Clear
3:15 AM 5.0 °F -5.6 °F -2.2 °F 72% 30.24 in 10.0 mi ENE 5.8 mph - N/A   Clear
3:35 AM 5.0 °F -5.6 °F -2.2 °F 72% 30.24 in 10.0 mi East 5.8 mph - N/A   Clear
3:55 AM 5.0 °F -5.6 °F -2.2 °F 72% 30.24 in 10.0 mi East 5.8 mph - N/A   Clear
4:15 AM 3.2 °F -7.8 °F -2.2 °F 78% 30.24 in 10.0 mi ESE 5.8 mph - N/A   Clear
4:35 AM 5.0 °F -6.9 °F -2.2 °F 72% 30.24 in 10.0 mi East 6.9 mph - N/A   Clear
4:55 AM 5.0 °F -8.1 °F -2.2 °F 72% 30.23 in 10.0 mi ESE 8.1 mph - N/A   Clear
5:15 AM 3.2 °F -10.3 °F -2.2 °F 78% 30.23 in 10.0 mi East 8.1 mph - N/A   Clear
5:35 AM 3.2 °F -7.8 °F -2.2 °F 78% 30.23 in 10.0 mi ESE 5.8 mph - N/A   Clear
5:55 AM 3.2 °F -11.3 °F -2.2 °F 78% 30.22 in 10.0 mi ESE 9.2 mph - N/A   Clear
6:15 AM 5.0 °F -9.1 °F -2.2 °F 72% 30.23 in 10.0 mi SE 9.2 mph - N/A   Mostly Cloudy
6:35 AM 5.0 °F -11.6 °F -2.2 °F 72% 30.22 in 10.0 mi ESE 12.7 mph - N/A   Overcast
6:55 AM 5.0 °F -11.6 °F -2.2 °F 72% 30.21 in 10.0 mi SE 12.7 mph - N/A   Mostly Cloudy
7:15 AM 5.0 °F -10.0 °F -2.2 °F 72% 30.21 in 10.0 mi SE 10.4 mph - N/A   Partly Cloudy
7:35 AM 5.0 °F -10.8 °F -2.2 °F 72% 30.21 in 10.0 mi SE 11.5 mph - N/A   Clear
7:55 AM 5.0 °F -10.0 °F -0.4 °F 78% 30.21 in 10.0 mi SE 10.4 mph - N/A   Scattered Clouds
8:15 AM 6.8 °F -10.0 °F -0.4 °F 72% 30.21 in 10.0 mi SE 13.8 mph - N/A   Mostly Cloudy
8:35 AM 6.8 °F -10.0 °F -0.4 °F 72% 30.20 in 10.0 mi SE 13.8 mph - N/A   Overcast
8:55 AM 8.6 °F -7.0 °F 1.4 °F 73% 30.19 in 10.0 mi SE 12.7 mph - N/A   Overcast
9:15 AM 8.6 °F -7.0 °F 1.4 °F 73% 30.19 in 10.0 mi SE 12.7 mph 18.4 mph N/A   Mostly Cloudy
9:35 AM 10.4 °F -6.6 °F 3.2 °F 73% 30.19 in 10.0 mi SE 16.1 mph - N/A   Partly Cloudy
9:55 AM 12.2 °F -4.3 °F 3.2 °F 67% 30.19 in 10.0 mi SE 16.1 mph - N/A   Partly Cloudy
10:15 AM 14.0 °F -2.0 °F 5.0 °F 67% 30.18 in 10.0 mi SE 16.1 mph 21.9 mph N/A   Mostly Cloudy
10:35 AM 15.8 °F -0.2 °F 5.0 °F 62% 30.18 in 10.0 mi SE 17.3 mph - N/A   Mostly Cloudy
10:55 AM 17.6 °F 1.3 °F 6.8 °F 63% 30.17 in 10.0 mi SE 19.6 mph - N/A   Clear
11:15 AM 19.4 °F 4.5 °F 8.6 °F 63% 30.17 in 10.0 mi SE 17.3 mph - N/A   Clear
11:35 AM 21.2 °F 7.8 °F 8.6 °F 58% 30.15 in 10.0 mi SE 15.0 mph - N/A   Clear
11:55 AM 24.8 °F 11.9 °F 10.4 °F 54% 30.15 in 10.0 mi SE 16.1 mph - N/A   Scattered Clouds
12:15 PM 24.8 °F 12.9 °F 10.4 °F 54% 30.14 in 10.0 mi SE 13.8 mph 20.7 mph N/A   Overcast
12:35 PM 24.8 °F 11.5 °F 12.2 °F 59% 30.12 in 10.0 mi SE 17.3 mph - N/A   Overcast
12:55 PM 28.4 °F 15.8 °F 14.0 °F 55% 30.10 in 10.0 mi SSE 18.4 mph - N/A   Overcast
1:15 PM 28.4 °F 15.8 °F 15.8 °F 59% 30.09 in 10.0 mi SSE 18.4 mph 24.2 mph N/A   Mostly Cloudy
1:35 PM 30.2 °F 18.1 °F 15.8 °F 55% 30.08 in 10.0 mi SSE 18.4 mph - N/A   Overcast
1:55 PM 30.2 °F 18.9 °F 17.6 °F 60% 30.07 in 10.0 mi SSE 16.1 mph 21.9 mph N/A   Overcast
2:15 PM 30.2 °F 18.1 °F 17.6 °F 60% 30.05 in 10.0 mi SSE 18.4 mph - N/A   Mostly Cloudy
2:35 PM 32.0 °F 20.8 °F 19.4 °F 60% 30.04 in 10.0 mi SSE 17.3 mph 24.2 mph N/A   Mostly Cloudy
2:55 PM 32.0 °F 20.1 °F 19.4 °F 60% 30.02 in 10.0 mi SSE 19.6 mph 26.5 mph N/A   Overcast
3:15 PM 33.8 °F 22.5 °F 19.4 °F 56% 30.02 in 10.0 mi SSE 19.6 mph - N/A   Overcast
3:35 PM 33.8 °F 23.2 °F 21.2 °F 60% 30.01 in 10.0 mi SSE 17.3 mph 24.2 mph N/A   Mostly Cloudy
3:55 PM 35.6 °F 25.2 °F 21.2 °F 56% 30.00 in 10.0 mi SSE 18.4 mph - N/A   Overcast
4:15 PM 35.6 °F 25.2 °F 21.2 °F 56% 30.00 in 10.0 mi SSE 18.4 mph - N/A   Mostly Cloudy
4:35 PM 35.6 °F 25.5 °F 23.0 °F 60% 29.99 in 10.0 mi SSE 17.3 mph - N/A   Mostly Cloudy
4:55 PM 35.6 °F 25.5 °F 21.2 °F 56% 29.99 in 10.0 mi SSE 17.3 mph 24.2 mph N/A   Overcast
5:15 PM 33.8 °F 24.3 °F 21.2 °F 60% 29.99 in 10.0 mi SSE 13.8 mph - N/A   Overcast
5:35 PM 33.8 °F 24.3 °F 23.0 °F 65% 29.99 in 10.0 mi SSE 13.8 mph 21.9 mph N/A   Overcast
5:55 PM 33.8 °F 25.3 °F 23.0 °F 65% 29.99 in 10.0 mi SE 11.5 mph - N/A   Overcast
6:15 PM 33.8 °F 25.3 °F 23.0 °F 65% 29.99 in 10.0 mi SSE 11.5 mph - N/A   Overcast
6:35 PM 33.8 °F 23.9 °F 23.0 °F 65% 30.00 in 10.0 mi SSE 15.0 mph - N/A   Overcast
6:55 PM 33.8 °F 23.9 °F 21.2 °F 60% 30.00 in 10.0 mi SSE 15.0 mph - N/A   Scattered Clouds
7:15 PM 32.0 °F 22.5 °F 21.2 °F 64% 30.00 in 10.0 mi SSE 12.7 mph - N/A   Clear
7:35 PM 32.0 °F 22.5 °F 21.2 °F 64% 30.00 in 10.0 mi SSE 12.7 mph - N/A   Clear
7:55 PM 32.0 °F 22.5 °F 21.2 °F 64% 30.00 in 10.0 mi SSE 12.7 mph - N/A   Clear
8:15 PM 32.0 °F 22.5 °F 21.2 °F 64% 30.01 in 10.0 mi SSE 12.7 mph - N/A   Clear
8:35 PM 30.2 °F 21.3 °F 21.2 °F 69% 30.01 in 10.0 mi SE 10.4 mph - N/A   Clear
8:55 PM 28.4 °F 19.1 °F 21.2 °F 74% 30.00 in - SE 10.4 mph - N/A   Clear
9:15 PM 30.2 °F 19.8 °F 21.2 °F 69% 30.00 in 10.0 mi SE 13.8 mph - N/A   Clear
9:35 PM 30.2 °F 19.3 °F 21.2 °F 69% 30.00 in 10.0 mi SSE 15.0 mph - N/A   Clear
9:55 PM 30.2 °F 19.3 °F 21.2 °F 69% 29.99 in 10.0 mi SSE 15.0 mph - N/A   Clear
10:15 PM 30.2 °F 19.3 °F 21.2 °F 69% 29.99 in 10.0 mi SSE 15.0 mph - N/A   Clear
10:35 PM 30.2 °F 19.3 °F 21.2 °F 69% 29.98 in 10.0 mi SSE 15.0 mph - N/A   Clear
10:55 PM 28.4 °F 17.0 °F 21.2 °F 74% 29.98 in 10.0 mi SSE 15.0 mph - N/A   Clear
11:15 PM 28.4 °F 16.6 °F 21.2 °F 74% 29.99 in 10.0 mi SSE 16.1 mph - N/A   Clear
11:35 PM 28.4 °F 16.6 °F 21.2 °F 74% 29.98 in 10.0 mi SSE 16.1 mph - N/A   Clear
11:55 PM 30.2 °F 19.8 °F 21.2 °F 69% 29.98 in 10.0 mi SSE 13.8 mph - N/A   Clear